Location: George Washington National Forest Helicopter Landing Site
(38.6463°N, 79.0851°W)
Time: 04:05:26
(UTC-04:00)

Tiros 1 despin weight - All Passes

Search period start: 19 August 2019 00:00
Search period end: 29 August 2019 00:00
Orbit: 594 x 642 km, 48.2° (Epoch: 18 August)

Date Brightness Start Highest point End Pass type
(mag) Time Alt. Az. Time Alt. Az. Time Alt. Az.
19 Aug - 00:19:49 10° S 00:22:50 18° SE 00:25:52 10° E night (unlit)
19 Aug - 01:59:28 10° WSW 02:03:56 82° NNW 02:08:28 10° ENE visible
19 Aug - 03:42:02 10° WNW 03:45:58 29° NNW 03:49:58 10° NE visible
19 Aug - 05:24:42 10° NW 05:28:32 26° N 05:32:24 10° ENE visible
19 Aug - 07:06:16 10° NW 07:10:48 55° NNE 07:15:23 10° ESE daylight
19 Aug - 08:48:07 10° WNW 08:52:14 32° SW 08:56:22 10° SSE daylight
20 Aug - 00:35:07 10° SSW 00:39:09 36° SE 00:43:17 10° ENE night (unlit)
20 Aug - 02:16:18 10° W 02:20:38 49° NNW 02:25:03 10° NE visible
20 Aug - 03:59:13 10° WNW 04:02:58 25° N 04:06:45 10° NE visible
20 Aug - 05:41:26 10° NW 05:45:30 31° NNE 05:49:38 10° ENE visible
20 Aug - 07:22:52 10° WNW 07:27:29 88° SSW 07:32:09 10° SE daylight
20 Aug - 09:05:41 10° W 09:08:34 16° SW 09:11:27 10° S daylight
20 Aug - 23:13:15 10° SSE 23:14:46 12° SE 23:16:16 10° ESE night (unlit)
21 Aug - 00:51:14 10° SW 00:55:38 71° SE 01:00:07 10° ENE night (unlit)
21 Aug - 02:33:25 10° W 02:37:29 33° NNW 02:41:37 10° NE visible
21 Aug - 04:16:17 10° NW 04:20:00 24° N 04:23:45 10° ENE visible
21 Aug - 05:58:02 10° NW 06:02:23 43° NNE 06:06:49 10° E visible
21 Aug - 07:39:36 10° WNW 07:44:02 47° SW 07:48:29 10° SSE daylight
21 Aug - 23:27:27 10° S 23:31:01 24° SE 23:34:37 10° E night (unlit)
22 Aug - 01:07:52 10° WSW 01:12:16 65° NNW 01:16:46 10° NE night (unlit)
22 Aug - 02:50:38 10° WNW 02:54:27 26° N 02:58:18 10° NE visible
22 Aug - 04:33:07 10° NW 04:37:00 27° N 04:40:56 10° ENE visible
22 Aug - 06:14:35 10° NW 06:19:09 68° NNE 06:23:46 10° ESE daylight
22 Aug - 07:56:43 10° W 08:00:26 24° SW 08:04:10 10° S daylight
22 Aug - 23:43:10 10° SW 23:47:25 48° SE 23:51:43 10° ENE night (unlit)
23 Aug - 01:24:50 10° W 01:29:03 40° NNW 01:33:19 10° NE visible
23 Aug - 03:07:47 10° WNW 03:11:27 24° N 03:15:10 10° NE visible
23 Aug - 04:49:46 10° NW 04:53:56 34° NNE 04:58:10 10° E visible
23 Aug - 06:31:13 10° WNW 06:35:46 68° SW 06:40:22 10° SE daylight
23 Aug - 08:15:04 10° WSW 08:16:42 12° SW 08:18:21 10° SSW daylight
23 Aug - 22:20:13 10° S 22:22:55 16° SE 22:25:38 10° E night (unlit)
23 Aug - 23:59:32 10° WSW 00:03:57 89° NW 00:08:27 10° ENE night (unlit)
24 Aug - 01:42:01 10° WNW 01:45:56 29° NNW 01:49:55 10° NE visible
24 Aug - 03:24:45 10° NW 03:28:29 25° N 03:32:16 10° ENE visible
24 Aug - 05:06:21 10° NW 05:10:46 51° NNE 05:15:16 10° ESE visible
24 Aug - 06:48:05 10° WNW 06:52:15 35° SW 06:56:28 10° SSE daylight
24 Aug - 22:35:19 10° SSW 22:39:15 32° SE 22:43:12 10° ENE night (unlit)
25 Aug - 00:16:19 10° WSW 00:20:39 52° NNW 00:25:02 10° NE night (unlit)
25 Aug - 01:59:13 10° WNW 02:02:56 25° N 02:06:40 10° NE visible
25 Aug - 03:41:30 10° NW 03:45:28 29° NNE 03:49:29 10° ENE visible
25 Aug - 05:22:54 10° WNW 05:27:29 85° NE 05:32:06 10° ESE visible
25 Aug - 07:05:30 10° W 07:08:36 18° SW 07:11:44 10° S daylight
25 Aug - 22:51:20 10° SW 22:55:42 64° SE 23:00:06 10° ENE night (unlit)
26 Aug - 00:33:24 10° W 00:37:28 34° NNW 00:41:36 10° NE night (unlit)
26 Aug - 02:16:18 10° NW 02:19:57 24° N 02:23:38 10° NE visible
26 Aug - 03:58:06 10° NW 04:02:22 40° NNE 04:06:41 10° E visible
26 Aug - 05:39:37 10° WNW 05:44:02 52° SW 05:48:30 10° SE visible
26 Aug - 21:27:45 10° S 21:31:06 22° SE 21:34:29 10° E visible
26 Aug - 23:07:54 10° WSW 23:12:18 70° NNW 23:16:45 10° NE night (unlit)
27 Aug - 00:50:37 10° WNW 00:54:25 27° N 00:58:15 10° NE night (unlit)
27 Aug - 02:33:10 10° NW 02:36:58 26° N 02:40:47 10° ENE visible
27 Aug - 04:14:38 10° NW 04:19:08 63° NNE 04:23:41 10° ESE visible
27 Aug - 05:56:39 10° WNW 06:00:28 26° SW 06:04:18 10° SSE visible
27 Aug - 21:43:19 10° SSW 21:47:29 43° SE 21:51:41 10° ENE visible
27 Aug - 23:24:50 10° W 23:29:03 43° NNW 23:33:18 10° NE visible
28 Aug - 01:07:47 10° WNW 01:11:25 24° N 01:15:04 10° NE night (unlit)
28 Aug - 02:49:50 10° NW 02:53:54 33° NNE 02:58:01 10° E visible
28 Aug - 04:31:15 10° WNW 04:35:47 75° SW 04:40:21 10° SE visible
28 Aug - 06:14:39 10° WSW 06:16:45 13° SW 06:18:52 10° SSW visible
28 Aug - 20:20:40 10° SSE 20:23:00 14° SE 20:25:22 10° E visible
28 Aug - 21:59:36 10° SW 22:04:00 84° SSE 22:08:27 10° ENE visible
28 Aug - 23:42:00 10° WNW 23:45:55 30° NNW 23:49:54 10° NE visible
